Regional Weather Roundup
Issued by NWS

Home | Current Version | Previous Version | Text Only | Print | Product List | Glossary Off
Versions: 1 2 3 4 5 6 7 8 9 10 11 12 13 14 15 16 17 18 19 20 21 22 23 24 25 26 27 28

000
ASUS45 KCYS 071910
RWRWY

WYOMING REGIONAL WEATHER ROUNDUP
NATIONAL WEATHER SERVICE CHEYENNE WY
1200 PM MST WED DEC 07 2016

NOTE:  "FAIR" INDICATES FEW OR NO CLOUDS BELOW 12,000 FEET
WITH NO SIGNIFICANT WEATHER AND/OR OBSTRUCTIONS TO VISIBILITY.

WYZ001-072000-
YELLOWSTONE NATIONAL PARK

CITY           SKY/WX    TMP DP  RH WIND       PRES   REMARKS
LK YELLOWSTONE   N/A      3  -1  83 CALM      30.06R
W YELLOWSTONE  NOT AVBL

$$
WYZ002>013-054>058-071-098>099-072000-
NORTHERN WYOMING

CITY           SKY/WX    TMP DP  RH WIND       PRES   REMARKS
JACKSON        PTSUNNY    3   0  85 CALM      30.16S
CODY           FAIR      17   0  47 CALM      30.29F
GREYBULL       PTSUNNY   12  -1  56 VRB6      30.36F WCI   3
WORLAND        CLOUDY    10   0  63 N7        30.35S WCI  -1
SHERIDAN       FAIR       5  -5  63 W10       30.37F WCI -10
BUFFALO        FAIR       3  -7  63 NW6       30.28F WCI  -8
GILLETTE       CLOUDY     1  -6  72 NW14      30.32S WCI -17
HULETT         CLOUDY     3  -4  72 W9        30.31S WCI -11
NEWCASTLE      MOCLDY     3  -6  66 NW16      30.33R WCI -16

$$
WYZ014>020-022>026-101>103-072000-
CENTRAL WYOMING

CITY           SKY/WX    TMP DP  RH WIND       PRES   REMARKS
BIG PINEY      FAIR       9   1  70 S5        30.11S WCI   1
PINEDALE       FAIR       9   1  72 E7        30.11F WCI  -3
DUBOIS         FAIR       3  -6  66 CALM      30.06F
LANDER         FAIR       9   1  70 SE3       30.21F
RIVERTON       CLOUDY     8   0  69 CALM      30.23S
CASPER         FAIR       3  -4  72 CALM      30.25F
DOUGLAS        FAIR       6  -3  66 NW10      30.28S WCI  -9

$$
WYZ021-027>030-104>119-072000-
SOUTHERN WYOMING

CITY           SKY/WX    TMP DP  RH WIND       PRES   REMARKS
EVANSTON       PTSUNNY   12   3  67 W5        30.12S WCI   4
FORT BRIDGER   FAIR      15   4  62 W7        30.16S WCI   5
ROCK SPRINGS   CLOUDY     8   1  73 CALM      30.13S
DIXON          FAIR      13   1  58 CALM      30.16S
RAWLINS        FAIR       9  -3  58 VRB5      30.11S WCI   1
SARATOGA       FAIR       9   1  72 NW6       30.09R WCI  -1
LARAMIE        FAIR       4  -4  69 N10       30.03R WCI -11
CHEYENNE       PTSUNNY    5  -4  66 N12       30.12F WCI -11
TORRINGTON     PTSUNNY   11  -3  53 NW15      30.29S WCI  -5
PINE BLUFFS    MOCLDY     7   0  72 NW13G21   30.22S WCI  -9

$$




USA.gov is the U.S. government's official web portal to all federal, state and local government web resources and services.